Regional Weather Roundup
Issued by NWS Goodland, KS

Home | Current Version | Previous Version | Text Only | Print | Product List | Glossary On
Versions: 1 2 3 4 5 6 7 8 9 10 11 12 13 14 15 16 17 18 19 20 21 22 23 24 25 26 27 28 29 30 31 32 33 34 35 36 37 38 39 40 41 42 43 44 45 46 47 48 49 50
000
ASUS43 KGLD 271008
RWRGLD

GOODLAND FORECAST AREA HOURLY WEATHER ROUNDUP
NATIONAL WEATHER SERVICE GOODLAND KS
400 AM MDT FRI MAR 27 2015

...OFFICIAL OBSERVATIONS...

CITY           SKY/WX    TMP DP  RH WIND       PRES   REMARKS
GOODLAND KS    MOCLDY    31  27  85 E5        30.19R
HILL CITY KS   LGT SNOW  34  30  85 NE7       30.26R FOG
IMPERIAL NEB   FLURRIES  32  30  92 SE6       30.20S
MCCOOK NEB     LGT SNOW  32  30  92 E3        30.23F FOG
AKRON CO       MOCLDY    34  31  88 SE7       30.15F
BURLINGTON CO  CLOUDY    38  30  73 SE8       30.16S
LIMON CO       CLOUDY    41  30  65 S8        30.16F
$$

...UNOFFICIAL OBSERVATIONS...

CITY           SKY/WX    TMP DP  RH WIND       PRES   REMARKS
COLBY KS       FLURRIES  34  34 100 NE8       30.20F
GOVE KS          N/A     35  32  89 MISG        N/A
LENORA KS        N/A     30  32 100 MISG        N/A
NORTON KS      LGT SNOW  30  27  86 CALM      30.24F
SHARON SPRINGS   N/A     37  30  77 NE5         N/A
TRIBUNE KS     CLOUDY    39  36  87 NE8       30.20R
KIT CARSON CO    N/A     42  33  71 MISG        N/A
YUMA CO          N/A     33  28  81 E6          N/A
$$


USA.gov is the U.S. government's official web portal to all federal, state and local government web resources and services.